timestamp,waterbody_station,lease,latitude,longitude,deployment_start_date,deployment_end_date,sensor,depth,mooring,Temperature_degrees Celsius,Dissolved Oxygen_percent saturation,Dissolved Oxygen_mg/L
2017-11-13T00:00:00,Sober Island Pond-Sober Island,1323.0,44.845186,-62.4662922,2017-06-24,2017-12-12,HOBO-10817399,1.0,float,6.788,,
2017-11-13T00:15:00,Sober Island Pond-Sober Island,1323.0,44.845186,-62.4662922,2017-06-24,2017-12-12,HOBO-10817399,1.0,float,6.788,,
2017-11-13T00:30:00,Sober Island Pond-Sober Island,1323.0,44.845186,-62.4662922,2017-06-24,2017-12-12,HOBO-10817399,1.0,float,6.788,,
2017-11-13T00:45:00,Sober Island Pond-Sober Island,1323.0,44.845186,-62.4662922,2017-06-24,2017-12-12,HOBO-10817399,1.0,float,6.788,,
2017-11-13T01:00:00,Sober Island Pond-Sober Island,1323.0,44.845186,-62.4662922,2017-06-24,2017-12-12,HOBO-10817399,1.0,float,6.788,,
2017-11-13T01:15:00,Sober Island Pond-Sober Island,1323.0,44.845186,-62.4662922,2017-06-24,2017-12-12,HOBO-10817399,1.0,float,6.788,,
2017-11-13T01:30:00,Sober Island Pond-Sober Island,1323.0,44.845186,-62.4662922,2017-06-24,2017-12-12,HOBO-10817399,1.0,float,6.788,,
2017-11-13T01:45:00,Sober Island Pond-Sober Island,1323.0,44.845186,-62.4662922,2017-06-24,2017-12-12,HOBO-10817399,1.0,float,6.763,,
2017-11-13T02:00:00,Sober Island Pond-Sober Island,1323.0,44.845186,-62.4662922,2017-06-24,2017-12-12,HOBO-10817399,1.0,float,6.763,,
2017-11-13T02:15:00,Sober Island Pond-Sober Island,1323.0,44.845186,-62.4662922,2017-06-24,2017-12-12,HOBO-10817399,1.0,float,6.737,,
2017-11-13T02:30:00,Sober Island Pond-Sober Island,1323.0,44.845186,-62.4662922,2017-06-24,2017-12-12,HOBO-10817399,1.0,float,6.763,,
2017-11-13T02:45:00,Sober Island Pond-Sober Island,1323.0,44.845186,-62.4662922,2017-06-24,2017-12-12,HOBO-10817399,1.0,float,6.737,,
2017-11-13T03:00:00,Sober Island Pond-Sober Island,1323.0,44.845186,-62.4662922,2017-06-24,2017-12-12,HOBO-10817399,1.0,float,6.737,,
2017-11-13T03:15:00,Sober Island Pond-Sober Island,1323.0,44.845186,-62.4662922,2017-06-24,2017-12-12,HOBO-10817399,1.0,float,6.737,,
2017-11-13T03:30:00,Sober Island Pond-Sober Island,1323.0,44.845186,-62.4662922,2017-06-24,2017-12-12,HOBO-10817399,1.0,float,6.687,,
2017-11-13T03:45:00,Sober Island Pond-Sober Island,1323.0,44.845186,-62.4662922,2017-06-24,2017-12-12,HOBO-10817399,1.0,float,6.687,,
2017-11-13T04:00:00,Sober Island Pond-Sober Island,1323.0,44.845186,-62.4662922,2017-06-24,2017-12-12,HOBO-10817399,1.0,float,6.712,,
2017-11-13T04:15:00,Sober Island Pond-Sober Island,1323.0,44.845186,-62.4662922,2017-06-24,2017-12-12,HOBO-10817399,1.0,float,6.712,,
2017-11-13T04:30:00,Sober Island Pond-Sober Island,1323.0,44.845186,-62.4662922,2017-06-24,2017-12-12,HOBO-10817399,1.0,float,6.712,,
2017-11-13T04:45:00,Sober Island Pond-Sober Island,1323.0,44.845186,-62.4662922,2017-06-24,2017-12-12,HOBO-10817399,1.0,float,6.687,,
2017-11-13T05:00:00,Sober Island Pond-Sober Island,1323.0,44.845186,-62.4662922,2017-06-24,2017-12-12,HOBO-10817399,1.0,float,6.636,,
2017-11-13T05:15:00,Sober Island Pond-Sober Island,1323.0,44.845186,-62.4662922,2017-06-24,2017-12-12,HOBO-10817399,1.0,float,6.636,,
2017-11-13T05:30:00,Sober Island Pond-Sober Island,1323.0,44.845186,-62.4662922,2017-06-24,2017-12-12,HOBO-10817399,1.0,float,6.661,,
2017-11-13T05:45:00,Sober Island Pond-Sober Island,1323.0,44.845186,-62.4662922,2017-06-24,2017-12-12,HOBO-10817399,1.0,float,6.661,,
2017-11-13T06:00:00,Sober Island Pond-Sober Island,1323.0,44.845186,-62.4662922,2017-06-24,2017-12-12,HOBO-10817399,1.0,float,6.636,,
2017-11-13T06:15:00,Sober Island Pond-Sober Island,1323.0,44.845186,-62.4662922,2017-06-24,2017-12-12,HOBO-10817399,1.0,float,6.636,,
2017-11-13T06:30:00,Sober Island Pond-Sober Island,1323.0,44.845186,-62.4662922,2017-06-24,2017-12-12,HOBO-10817399,1.0,float,6.636,,
2017-11-13T06:45:00,Sober Island Pond-Sober Island,1323.0,44.845186,-62.4662922,2017-06-24,2017-12-12,HOBO-10817399,1.0,float,6.611,,
2017-11-13T07:00:00,Sober Island Pond-Sober Island,1323.0,44.845186,-62.4662922,2017-06-24,2017-12-12,HOBO-10817399,1.0,float,6.611,,
2017-11-13T07:15:00,Sober Island Pond-Sober Island,1323.0,44.845186,-62.4662922,2017-06-24,2017-12-12,HOBO-10817399,1.0,float,6.611,,
2017-11-13T07:30:00,Sober Island Pond-Sober Island,1323.0,44.845186,-62.4662922,2017-06-24,2017-12-12,HOBO-10817399,1.0,float,6.611,,
2017-11-13T07:45:00,Sober Island Pond-Sober Island,1323.0,44.845186,-62.4662922,2017-06-24,2017-12-12,HOBO-10817399,1.0,float,6.585,,
2017-11-13T08:00:00,Sober Island Pond-Sober Island,1323.0,44.845186,-62.4662922,2017-06-24,2017-12-12,HOBO-10817399,1.0,float,6.585,,
2017-11-13T08:15:00,Sober Island Pond-Sober Island,1323.0,44.845186,-62.4662922,2017-06-24,2017-12-12,HOBO-10817399,1.0,float,6.56,,
2017-11-13T08:30:00,Sober Island Pond-Sober Island,1323.0,44.845186,-62.4662922,2017-06-24,2017-12-12,HOBO-10817399,1.0,float,6.56,,
2017-11-13T08:45:00,Sober Island Pond-Sober Island,1323.0,44.845186,-62.4662922,2017-06-24,2017-12-12,HOBO-10817399,1.0,float,6.535,,
2017-11-13T09:00:00,Sober Island Pond-Sober Island,1323.0,44.845186,-62.4662922,2017-06-24,2017-12-12,HOBO-10817399,1.0,float,6.509,,
2017-11-13T09:15:00,Sober Island Pond-Sober Island,1323.0,44.845186,-62.4662922,2017-06-24,2017-12-12,HOBO-10817399,1.0,float,6.458,,
2017-11-13T09:30:00,Sober Island Pond-Sober Island,1323.0,44.845186,-62.4662922,2017-06-24,2017-12-12,HOBO-10817399,1.0,float,6.458,,
2017-11-13T09:45:00,Sober Island Pond-Sober Island,1323.0,44.845186,-62.4662922,2017-06-24,2017-12-12,HOBO-10817399,1.0,float,6.433,,
2017-11-13T10:00:00,Sober Island Pond-Sober Island,1323.0,44.845186,-62.4662922,2017-06-24,2017-12-12,HOBO-10817399,1.0,float,6.433,,
2017-11-13T10:15:00,Sober Island Pond-Sober Island,1323.0,44.845186,-62.4662922,2017-06-24,2017-12-12,HOBO-10817399,1.0,float,6.433,,
2017-11-13T10:30:00,Sober Island Pond-Sober Island,1323.0,44.845186,-62.4662922,2017-06-24,2017-12-12,HOBO-10817399,1.0,float,6.382,,
2017-11-13T10:45:00,Sober Island Pond-Sober Island,1323.0,44.845186,-62.4662922,2017-06-24,2017-12-12,HOBO-10817399,1.0,float,6.357,,
2017-11-13T11:00:00,Sober Island Pond-Sober Island,1323.0,44.845186,-62.4662922,2017-06-24,2017-12-12,HOBO-10817399,1.0,float,6.357,,
2017-11-13T11:15:00,Sober Island Pond-Sober Island,1323.0,44.845186,-62.4662922,2017-06-24,2017-12-12,HOBO-10817399,1.0,float,6.331,,
2017-11-13T11:30:00,Sober Island Pond-Sober Island,1323.0,44.845186,-62.4662922,2017-06-24,2017-12-12,HOBO-10817399,1.0,float,6.331,,
2017-11-13T11:45:00,Sober Island Pond-Sober Island,1323.0,44.845186,-62.4662922,2017-06-24,2017-12-12,HOBO-10817399,1.0,float,6.331,,
2017-11-13T12:00:00,Sober Island Pond-Sober Island,1323.0,44.845186,-62.4662922,2017-06-24,2017-12-12,HOBO-10817399,1.0,float,6.357,,
2017-11-13T12:15:00,Sober Island Pond-Sober Island,1323.0,44.845186,-62.4662922,2017-06-24,2017-12-12,HOBO-10817399,1.0,float,6.433,,
2017-11-13T12:30:00,Sober Island Pond-Sober Island,1323.0,44.845186,-62.4662922,2017-06-24,2017-12-12,HOBO-10817399,1.0,float,6.509,,
2017-11-13T12:45:00,Sober Island Pond-Sober Island,1323.0,44.845186,-62.4662922,2017-06-24,2017-12-12,HOBO-10817399,1.0,float,6.585,,
2017-11-13T13:00:00,Sober Island Pond-Sober Island,1323.0,44.845186,-62.4662922,2017-06-24,2017-12-12,HOBO-10817399,1.0,float,6.636,,
2017-11-13T13:15:00,Sober Island Pond-Sober Island,1323.0,44.845186,-62.4662922,2017-06-24,2017-12-12,HOBO-10817399,1.0,float,6.712,,
2017-11-13T13:30:00,Sober Island Pond-Sober Island,1323.0,44.845186,-62.4662922,2017-06-24,2017-12-12,HOBO-10817399,1.0,float,6.737,,
2017-11-13T13:45:00,Sober Island Pond-Sober Island,1323.0,44.845186,-62.4662922,2017-06-24,2017-12-12,HOBO-10817399,1.0,float,7.066,,
2017-11-13T14:00:00,Sober Island Pond-Sober Island,1323.0,44.845186,-62.4662922,2017-06-24,2017-12-12,HOBO-10817399,1.0,float,6.636,,
2017-11-13T14:15:00,Sober Island Pond-Sober Island,1323.0,44.845186,-62.4662922,2017-06-24,2017-12-12,HOBO-10817399,1.0,float,6.636,,
2017-11-13T14:30:00,Sober Island Pond-Sober Island,1323.0,44.845186,-62.4662922,2017-06-24,2017-12-12,HOBO-10817399,1.0,float,6.484,,
2017-11-13T14:45:00,Sober Island Pond-Sober Island,1323.0,44.845186,-62.4662922,2017-06-24,2017-12-12,HOBO-10817399,1.0,float,6.484,,
2017-11-13T15:00:00,Sober Island Pond-Sober Island,1323.0,44.845186,-62.4662922,2017-06-24,2017-12-12,HOBO-10817399,1.0,float,6.56,,
2017-11-13T15:15:00,Sober Island Pond-Sober Island,1323.0,44.845186,-62.4662922,2017-06-24,2017-12-12,HOBO-10817399,1.0,float,6.611,,
2017-11-13T15:30:00,Sober Island Pond-Sober Island,1323.0,44.845186,-62.4662922,2017-06-24,2017-12-12,HOBO-10817399,1.0,float,6.687,,
2017-11-13T15:45:00,Sober Island Pond-Sober Island,1323.0,44.845186,-62.4662922,2017-06-24,2017-12-12,HOBO-10817399,1.0,float,6.763,,
2017-11-13T16:00:00,Sober Island Pond-Sober Island,1323.0,44.845186,-62.4662922,2017-06-24,2017-12-12,HOBO-10817399,1.0,float,6.839,,
2017-11-13T16:15:00,Sober Island Pond-Sober Island,1323.0,44.845186,-62.4662922,2017-06-24,2017-12-12,HOBO-10817399,1.0,float,6.839,,
2017-11-13T16:30:00,Sober Island Pond-Sober Island,1323.0,44.845186,-62.4662922,2017-06-24,2017-12-12,HOBO-10817399,1.0,float,6.889,,
2017-11-13T16:45:00,Sober Island Pond-Sober Island,1323.0,44.845186,-62.4662922,2017-06-24,2017-12-12,HOBO-10817399,1.0,float,6.914,,
2017-11-13T17:00:00,Sober Island Pond-Sober Island,1323.0,44.845186,-62.4662922,2017-06-24,2017-12-12,HOBO-10817399,1.0,float,6.889,,
2017-11-13T17:15:00,Sober Island Pond-Sober Island,1323.0,44.845186,-62.4662922,2017-06-24,2017-12-12,HOBO-10817399,1.0,float,6.965,,
2017-11-13T17:30:00,Sober Island Pond-Sober Island,1323.0,44.845186,-62.4662922,2017-06-24,2017-12-12,HOBO-10817399,1.0,float,6.965,,
2017-11-13T17:45:00,Sober Island Pond-Sober Island,1323.0,44.845186,-62.4662922,2017-06-24,2017-12-12,HOBO-10817399,1.0,float,7.242,,
2017-11-13T18:00:00,Sober Island Pond-Sober Island,1323.0,44.845186,-62.4662922,2017-06-24,2017-12-12,HOBO-10817399,1.0,float,7.368,,
2017-11-13T18:15:00,Sober Island Pond-Sober Island,1323.0,44.845186,-62.4662922,2017-06-24,2017-12-12,HOBO-10817399,1.0,float,7.494,,
2017-11-13T18:30:00,Sober Island Pond-Sober Island,1323.0,44.845186,-62.4662922,2017-06-24,2017-12-12,HOBO-10817399,1.0,float,6.965,,
2017-11-13T18:45:00,Sober Island Pond-Sober Island,1323.0,44.845186,-62.4662922,2017-06-24,2017-12-12,HOBO-10817399,1.0,float,6.914,,
2017-11-13T19:00:00,Sober Island Pond-Sober Island,1323.0,44.845186,-62.4662922,2017-06-24,2017-12-12,HOBO-10817399,1.0,float,6.889,,
2017-11-13T19:15:00,Sober Island Pond-Sober Island,1323.0,44.845186,-62.4662922,2017-06-24,2017-12-12,HOBO-10817399,1.0,float,6.889,,
2017-11-13T19:30:00,Sober Island Pond-Sober Island,1323.0,44.845186,-62.4662922,2017-06-24,2017-12-12,HOBO-10817399,1.0,float,6.839,,
2017-11-13T19:45:00,Sober Island Pond-Sober Island,1323.0,44.845186,-62.4662922,2017-06-24,2017-12-12,HOBO-10817399,1.0,float,6.839,,
2017-11-13T20:00:00,Sober Island Pond-Sober Island,1323.0,44.845186,-62.4662922,2017-06-24,2017-12-12,HOBO-10817399,1.0,float,6.839,,
2017-11-13T20:15:00,Sober Island Pond-Sober Island,1323.0,44.845186,-62.4662922,2017-06-24,2017-12-12,HOBO-10817399,1.0,float,6.788,,
2017-11-13T20:30:00,Sober Island Pond-Sober Island,1323.0,44.845186,-62.4662922,2017-06-24,2017-12-12,HOBO-10817399,1.0,float,6.788,,
2017-11-13T20:45:00,Sober Island Pond-Sober Island,1323.0,44.845186,-62.4662922,2017-06-24,2017-12-12,HOBO-10817399,1.0,float,6.813,,
2017-11-13T21:00:00,Sober Island Pond-Sober Island,1323.0,44.845186,-62.4662922,2017-06-24,2017-12-12,HOBO-10817399,1.0,float,6.839,,
2017-11-13T21:15:00,Sober Island Pond-Sober Island,1323.0,44.845186,-62.4662922,2017-06-24,2017-12-12,HOBO-10817399,1.0,float,6.864,,
2017-11-13T21:30:00,Sober Island Pond-Sober Island,1323.0,44.845186,-62.4662922,2017-06-24,2017-12-12,HOBO-10817399,1.0,float,6.839,,
2017-11-13T21:45:00,Sober Island Pond-Sober Island,1323.0,44.845186,-62.4662922,2017-06-24,2017-12-12,HOBO-10817399,1.0,float,6.839,,
2017-11-13T22:00:00,Sober Island Pond-Sober Island,1323.0,44.845186,-62.4662922,2017-06-24,2017-12-12,HOBO-10817399,1.0,float,6.788,,
2017-11-13T22:15:00,Sober Island Pond-Sober Island,1323.0,44.845186,-62.4662922,2017-06-24,2017-12-12,HOBO-10817399,1.0,float,6.788,,
2017-11-13T22:30:00,Sober Island Pond-Sober Island,1323.0,44.845186,-62.4662922,2017-06-24,2017-12-12,HOBO-10817399,1.0,float,6.788,,
2017-11-13T22:45:00,Sober Island Pond-Sober Island,1323.0,44.845186,-62.4662922,2017-06-24,2017-12-12,HOBO-10817399,1.0,float,6.788,,
2017-11-13T23:00:00,Sober Island Pond-Sober Island,1323.0,44.845186,-62.4662922,2017-06-24,2017-12-12,HOBO-10817399,1.0,float,6.788,,
2017-11-13T23:15:00,Sober Island Pond-Sober Island,1323.0,44.845186,-62.4662922,2017-06-24,2017-12-12,HOBO-10817399,1.0,float,6.763,,
2017-11-13T23:30:00,Sober Island Pond-Sober Island,1323.0,44.845186,-62.4662922,2017-06-24,2017-12-12,HOBO-10817399,1.0,float,6.788,,
2017-11-13T23:45:00,Sober Island Pond-Sober Island,1323.0,44.845186,-62.4662922,2017-06-24,2017-12-12,HOBO-10817399,1.0,float,6.788,,
